Regional Weather Roundup
Issued by NWS

Home | Current Version | Previous Version | Text Only | Print | Product List | Glossary Off
Versions: 1 2 3 4 5 6 7 8 9 10 11 12 13 14 15 16 17 18 19 20 21 22 23 24 25 26 27 28 29 30 31 32 33 34 35 36 37 38 39 40 41 42 43 44 45 46 47 48 49 50

000
ASUS45 KTFX 171119
RWRMT
MONTANA HOURLY WEATHER ROUNDUP
NATIONAL WEATHER SERVICE GREAT FALLS MT
519 AM MDT THU APR 17 2014

NOTE: "FAIR" INDICATES FEW OR NO CLOUDS BELOW 12000 FEET WITH NO
SIGNIFICANT WEATHER AND/OR OBSTRUCTIONS TO VISIBILITY.

* THESE STATIONS ARE NOT UNDER NWS QUALITY CONTROL. THEY DO NOT
   REPORT WEATHER SUCH AS PRECIPITATION OR FOG.

MTZ001>007-043-171200-
WEST OF THE DIVIDE
CITY           SKY/WX    TMP DP  RH WIND       PRES   REMARKS
KALISPELL      CLOUDY    43  34  71 S5        29.91S
MISSOULA       CLOUDY    41  34  76 CALM      29.95F
BUTTE          CLOUDY    30  25  82 SE3       29.96S
MULLAN PASS    LGT SNOW  30  30 100 S5        29.89F VSB M1/4 WCI  25
* ESSEX        N/A       34  33  96 W1         N/A
* LINCOLN      N/A       37  29  73 W4         N/A
* LOOKOUT PASS N/A       35  34  96 N/A        N/A
* PLAINS APT   CLOUDY    43  36  76 CALM      29.94F
* POLSON       N/A       38  34  86 SE1        N/A
* RONAN APT    MOCLDY    43  36  76 N/A        N/A
* SEELEY LAKE  N/A       33  31  92 NE1        N/A
* THOMP F APT  CLOUDY    31  15  51 N/A        N/A
* YAAK HILL    N/A       42  37  83 NE2        N/A
$$

MTZ008-052>055-171200-
SOUTHWEST MONTANA
CITY           SKY/WX    TMP DP  RH WIND       PRES   REMARKS
BOZEMAN        CLOUDY    34  28  79 CALM      29.96F
DILLON         MOCLDY    30  18  61 S12       29.96S WCI  20
W YELLOWSTONE  N/A       22  16  78 N/A        N/A
* THREE FORKS  MOCLDY    34  28  79 N/A        N/A
* BOULDER HILL N/A       34  21  59 SW8        N/A   WCI  27
* MONIDA PASS  N/A       23  14  68 N1         N/A
* RAYNOLDS PAS N/A       24  12  60 SW6        N/A   WCI  17
* WHITEHALL    N/A       34  21  59 W2G8       N/A
* WISE RIVER   N/A       31  20  64 E3         N/A
$$

MTZ009>010-012-014-046-048-049-054-171200-
EAST SLOPES AND CENTRAL MONTANA
CITY           SKY/WX    TMP DP  RH WIND       PRES   REMARKS
CUT BANK       FOG       23  21  92 N5        29.86F VSB 1/2  WCI  16
GREAT FALLS    MOCLDY    36  28  73 S9        29.89F WCI  29
HELENA         CLOUDY    37  28  70 CALM      29.94F
MALMSTROM AFB  PTCLDY    36  28  73 S10       29.87F WCI  29
* CONRAD       MOCLDY    28  27  96 SE7        N/A   WCI  21
* DEARBORN     N/A       43  28  56 S6         N/A
* EAST GLACIER N/A       34  29  82 N2G8       N/A
* MONARCH      N/A       32  22  67 S7G12      N/A   WCI  25
* PENDROY      N/A       32  31  96 SW4        N/A
* ROGERS PASS  N/A       34  27  76 E11G20     N/A   WCI  26
* SAINT MARY   N/A       34  31  89 SE2        N/A
* SWEET GRASS  N/A       29  29 100 S17        N/A   WCI  17
* WHITE SULPH  N/A       33  30  89 NE6G11     N/A   WCI  27
$$

MTZ011-013-016-021-035-040-045-047-050-051-171200-
NORTH CENTRAL MONTANA
CITY           SKY/WX    TMP DP  RH WIND       PRES   REMARKS
HAVRE          MOCLDY    28  23  81 E14       29.92F WCI  17
LEWISTOWN      PTCLDY    28  27  96 E8        29.93F WCI  20
* CHINOOK      PTCLDY    28  21  75 E18G25    29.96F WCI  15
* FORT BENTON  PTCLDY    36  28  73 E8        29.93F WCI  30
* CHESTER      N/A       30  26  85 S6G12      N/A   WCI  24
* DENTON       N/A       34  31  89 S13        N/A   WCI  25
* GEYSER       N/A       26  25  96 N/A        N/A
* JUDITH GAP   N/A       32  32 100 SE9        N/A   WCI  24
* LOMA         N/A       32  27  82 E10        N/A   WCI  24
$$

MTZ017>020-022>027-061-062-171200-
NORTHEAST MONTANA
CITY           SKY/WX    TMP DP  RH WIND       PRES   REMARKS
GLASGOW        CLOUDY    25  19  78 E17       30.08F WCI  12
GLENDIVE       MOCLDY    27  21  78 E7        30.14F WCI  19
JORDAN         CLEAR     28  23  81 E6        30.06S WCI  21
SIDNEY         CLOUDY    28  21  75 E7        30.20F WCI  21
WOLF POINT     CLOUDY    28  19  69 E9        30.16F WCI  19
* BEAVER HILL  N/A       23  20  88 E14        N/A   WCI  10
* CIRCLE       N/A       27  23  85 E9         N/A   WCI  18
* LINDSAY DVD  N/A       24  22  92 E8         N/A   WCI  15
* NAVAJO       N/A       24  22  92 SE8        N/A   WCI  15
* SACO         N/A       26  20  78 E20G26     N/A   WCI  12
$$

MTZ028>042-056>058-171200-
SOUTHCENTRAL AND SOUTHEAST MONTANA
CITY           SKY/WX    TMP DP  RH WIND       PRES   REMARKS
BAKER          CLOUDY    27  25  92 SE15      30.12F WCI  15
BILLINGS       PTCLDY    34  30  85 CALM      30.00F
LIVINGSTON     CLOUDY    34  30  85 CALM      29.96F
MILES CITY     CLOUDY    32  27  82 NE7       30.08F WCI  25
* EKALAKA APT  MOCLDY    28  23  81 E13G23    30.04F WCI  17
* LAUREL APT   PTCLDY    34  21  59 N/A        N/A
* ROUNDUP APT  PTCLDY    32  28  85 N/A        N/A
* HYSHAM       N/A       29  26  89 N/A        N/A
* LAME DEER    N/A       30  29  96 S8         N/A   WCI  22
* REED POINT   N/A       31  31 100 N/A        N/A
* ROSCOE HILL  N/A       31  24  75 S6         N/A   WCI  25
$$

REGIONAL REPORTS...DAKOTAS
CITY           SKY/WX    TMP DP  RH WIND       PRES   REMARKS
WILLISTON      CLOUDY    27  21  78 SE12      30.22F WCI  16
DICKINSON      CLOUDY    28  18  66 SE13      30.18S WCI  17
CROSBY         CLOUDY    23  18  81 SE12      30.26F WCI  11
TIOGA          CLOUDY    21  18  88 E13       30.27S WCI   8
WATFORD CITY   CLOUDY    27  18  69 SE13      30.20S WCI  16
BISMARCK       CLOUDY    25  16  69 E7        30.31R WCI  17
GRAND FORKS    CLEAR     21  18  88 NW8       30.33R WCI  11
FARGO          PTCLDY    19  16  88 N6        30.29R WCI  11
BUFFALO SD     CLOUDY    28  25  89 SE16      30.07F WCI  16
RAPID CITY     CLOUDY    28  25  89 S10       30.14F WCI  19
$$

REGIONAL REPORTS...WYOMING/IDAHO/WASHINGTON
CITY           SKY/WX    TMP DP  RH WIND       PRES   REMARKS
GILLETTE       PTCLDY    32  28  85 S12       30.03S WCI  23
SHERIDAN       FOG       34  30  85 W3        30.02S VSB 3
CODY           CLEAR     27  25  92 S3        29.98F
YELLOWSTONE LA PTCLDY    19  14  81 CALM      30.03F
SALMON         PTCLDY    30  21  69 CALM      29.99F
MULLAN PASS    LGT SNOW  30  30 100 S5        29.89S VSB M1/4 WCI  25
SAND POINT     N/A       41  41 100 CALM      29.90F
SPOKANE        LGT RAIN  43  39  86 S7        29.89F
$$

REGIONAL REPORTS...ALBERTA
CITY           SKY/WX    TMP DP  RH WIND       PRES   REMARKS
CALGARY        FOG       28  27  96 S7        29.80F WCI  21
LETHBRIDGE     FOG       30  28  92 SW6       29.81F WCI  24
MEDICINE HAT   CLOUDY    36  30  79 VRB6      29.88F WCI  31
EDMONTON       LGT SNOW  28  25  89 SE17G24   29.88F VSB 2 1/4 WCI  16
WATERTON GATE  N/A       39  30  70 SW10       N/A   WCI  32
CARDSTON       N/A       30  30 100 SW5        N/A   WCI  25
MILK RIVER     N/A       30  28  92 S12        N/A   WCI  20
$$

REGIONAL REPORTS...SASKATCHEWAN
CITY           SKY/WX    TMP DP  RH WIND       PRES   REMARKS
SWIFT CURRENT  CLOUDY    25  19  78 SE23G30   30.01F WCI  10
MOOSE JAW      CLOUDY    25  16  69 SE15      30.18F WCI  13
REGINA         CLOUDY    23  14  68 SE20      30.23F WCI   8
VAL MARIE      N/A       27  21  78 SE16       N/A   WCI  15
ASSINIBOIA     N/A       25  21  85 SE13       N/A   WCI  13
CORONACH       N/A       25  21  85 SE16       N/A   WCI  12

$$




USA.gov is the U.S. government's official web portal to all federal, state and local government web resources and services.